Temperature
17 17 17 17 17 17 17 17 17 17 17 17 17 17 17 16 16 16 16 16 15 15 15 15 15 15 15 15 15 14 14 14 14 14 14 14 14 14
16 16 17 17 17 17 17 17 17 17 17 16 16 16 16 16 16 16 16 16 15 15 15 15 15 14 14 14 14 14 14 14 14 13 13 13 13 13
16 16 16 16 16 16 16 16 16 16 16 16 16 16 16 16 15 15 15 15 15 15 14 14 14 14 14 14 14 13 13 13 13 13 13 13 13 13
16 16 16 16 16 16 16 16 16 16 16 16 15 15 15 15 15 15 14 14 14 14 14 14 13 13 13 13 13 13 13 12 12 12 12 12 12 12
16 16 16 16 15 15 15 15 15 15 15 15 15 14 14 14 14 14 14 13 13 13 13 13 13 13 12 12 12 12 12 11 11 11 11 11 11 11
15 15 15 15 15 15 15 15 15 15 15 14 14 14 14 13 13 13 13 13 12 12 12 12 12 12 11 11 11 11 11 10 10 10 10 10 10 10
15 14 14 14 14 14 14 14 14 14 14 14 13 13 13 13 13 12 12 12 11 11 11 11 11 11 11 10 10 10 9 9 9 9 9 9 8 8
14 14 14 14 14 13 13 13 13 13 13 13 13 12 12 12 11 11 11 11 11 10 10 10 10 10 9 9 9 9 8 8 8 8 8 8 7 7
14 14 13 13 13 13 12 12 12 12 12 12 11 11 11 10 10 10 10 10 10 9 9 9 9 9 8 8 8 8 8 8 7 7 7 7 7 7
13 13 12 12 12 12 12 11 11 11 11 10 11 10 10 10 10 9 9 9 8 8 8 8 8 8 8 7 7 7 7 7 7 7 6 6 6 6
12 12 12 11 11 11 11 11 10 10 10 10 9 9 9 9 9 9 8 8 8 7 7 7 7 7 7 7 6 6 6 6 6 6 6 5 5 5
11 11 11 10 10 10 10 10 9 9 9 8 8 8 8 8 8 8 7 7 7 7 6 6 6 6 6 6 6 5 5 5 5 5 5 5 5 5
11 10 10 10 9 9 9 9 8 8 8 8 8 7 7 7 7 7 7 6 6 6 6 6 5 5 5 5 5 5 5 5 5 5 4 4 4 4
10 9 9 9 8 8 8 8 8 8 7 7 7 7 6 6 6 6 6 6 5 5 5 5 5 5 5 4 4 4 4 4 4 4 4 4 4 4
9 8 8 8 8 8 7 7 7 7 7 7 6 6 6 6 5 5 5 5 5 5 5 4 4 4 4 4 4 4 4 4 4 4 4 4 3 3
8 8 7 7 7 7 7 7 6 6 6 6 6 5 5 5 5 5 5 5 5 4 4 4 4 4 4 4 4 3 3 3 3 3 3 3 3 3
7 7 7 7 7 6 6 6 6 6 5 5 5 5 5 5 4 4 4 4 4 4 4 4 4 4 3 3 3 3 3 3 3 3 3 3 3 3
7 7 7 6 6 6 6 5 5 5 5 5 4 4 4 4 4 4 4 4 3 3 3 3 3 3 3 3 3 3 3 3 3 3 3 3 3 3
7 6 6 6 6 6 5 5 5 5 4 4 4 4 4 4 4 3 3 3 3 3 3 3 3 3 3 3 3 3 3 3 3 3 3 3 3 3
6 6 6 6 5 5 5 5 4 4 4 4 4 4 4 3 3 3 3 3 3 3 3 3 3 2 2 2 2 3 3 3 2 2 2 2 2 2
6 6 6 5 5 5 4 4 4 4 4 4 4 3 3 3 3 3 3 3 3 3 3 2 2 2 2 2 2 2 3 2 2 2 2 2 2 2
6 5 5 5 5 5 4 4 4 4 4 4 3 3 3 3 3 3 3 3 3 2 2 2 2 2 2 2 2 2 2 2 2 2 2 2 2 2
5 5 5 5 5 4 4 4 4 4 4 3 3 3 3 3 3 2 2 2 2 2 2 2 2 2 2 2 2 2 2 2 2 2 2 2 2 2
Wind_Speed
3 3 2 1 1 1 2 3 4 2 1 2 2 2 0 2 3 5 5 6 8 9 8 8 7 7 6 5 4 3 3 3 3 4 5 5 6 6
3 3 2 1 1 1 2 2 3 4 3 1 1 2 3 3 2 3 3 3 3 4 5 6 6 5 3 3 3 2 1 1 2 3 4 5 5 6
2 3 3 2 2 1 2 2 2 3 3 1 1 3 4 4 5 6 6 5 5 4 3 2 2 2 2 2 2 2 2 2 2 3 3 4 5 6
3 3 2 2 2 1 2 2 1 2 3 2 1 3 3 3 3 4 5 5 5 6 5 4 4 4 4 4 5 5 4 4 4 4 4 5 5 6
3 3 3 4 3 2 2 2 2 3 3 4 2 2 3 3 3 4 5 5 6 7 7 6 6 6 7 7 6 6 5 5 5 5 5 5 6 7
4 3 3 3 3 3 3 3 3 5 5 5 3 3 3 2 3 3 4 4 4 7 8 8 7 7 6 6 5 5 5 5 4 5 5 5 6 7
6 5 5 7 8 5 4 3 4 5 5 4 3 3 3 3 3 2 2 2 3 4 4 5 6 6 5 4 3 3 3 3 3 4 5 6 7 8
6 6 7 8 11 12 12 10 8 6 5 4 4 4 3 3 3 3 2 2 2 4 3 4 5 4 5 4 4 3 3 3 4 5 6 7 8 9
5 6 6 7 9 9 12 14 13 12 9 6 6 4 3 1 2 3 3 3 1 3 2 3 4 3 5 7 8 8 7 6 6 7 7 8 9 10
6 6 7 6 7 8 9 9 8 7 7 6 6 4 4 2 2 2 2 2 3 4 4 2 3 3 4 7 10 10 10 9 8 7 7 8 9 10
7 6 7 7 8 10 9 9 8 7 11 13 12 11 10 9 7 4 4 4 3 3 3 2 2 3 3 3 9 11 11 11 10 9 9 9 9 10
6 7 9 8 9 10 8 8 8 5 5 7 8 9 9 9 9 5 3 3 2 1 3 2 2 3 3 3 5 9 10 11 11 9 9 9 10 9
6 6 6 11 11 11 9 6 6 5 5 6 5 5 5 5 6 7 4 3 2 0 2 1 1 2 1 3 4 5 8 7 7 7 10 11 10 9
7 5 6 10 11 11 8 9 10 8 5 5 5 4 4 3 3 6 7 5 3 1 1 2 1 0 1 2 4 4 5 7 5 5 9 11 11 12
7 9 9 10 10 8 10 10 8 6 5 5 4 2 2 2 4 5 8 9 9 7 6 3 1 0 1 1 3 3 4 4 5 4 6 6 6 7
7 8 10 10 8 8 7 6 5 5 5 4 3 2 3 3 4 3 3 3 4 5 9 9 5 1 1 2 2 3 3 4 4 5 4 5 9 10
6 5 5 5 6 6 5 6 5 5 5 4 4 4 4 4 3 3 3 3 3 3 5 5 8 6 2 2 2 4 4 4 4 4 4 4 5 9
8 6 5 5 5 5 5 4 4 4 4 4 4 4 3 3 3 3 3 3 2 2 3 3 4 5 5 4 4 3 3 4 4 5 3 3 5 7
7 5 5 5 5 4 4 4 3 3 3 4 3 3 2 3 3 3 3 3 2 2 3 3 2 2 3 5 6 5 3 4 4 4 4 3 5 7
5 5 5 4 4 4 4 3 3 3 3 3 3 3 3 2 2 3 2 2 2 2 3 3 3 2 2 3 4 5 9 4 3 4 4 4 5 9
4 4 4 4 4 4 3 3 3 3 3 3 3 3 2 2 2 2 3 3 2 2 3 4 5 7 3 1 3 5 6 12 8 4 4 4 5 5
4 4 4 4 4 4 4 3 3 3 3 2 2 2 2 2 2 3 2 2 2 2 3 4 6 5 2 3 4 6 5 7 12 14 10 7 3 4
4 4 4 4 4 3 4 4 4 2 1 1 1 2 2 2 2 2 2 2 3 3 4 4 4 4 3 3 4 5 7 7 5 5 7 15 16 15
Wind_Direction
183 178 176 182 159 160 159 163 158 173 255 304 330 336 7 152 197 187 189 206 215 220 222 225 229 231 230 229 231 239 257 281 296 301 303 304 306 306
181 174 174 172 131 112 125 128 146 158 183 249 298 342 32 65 78 124 126 138 188 205 210 220 225 226 226 228 225 222 254 311 323 323 322 321 319 315
188 174 184 164 140 121 102 107 122 135 156 230 7 20 40 50 56 70 76 80 80 93 129 156 162 162 159 148 138 125 94 47 11 358 354 350 344 340
177 163 170 148 123 109 100 101 120 134 145 148 38 25 37 47 61 63 60 67 73 70 83 89 99 105 111 107 105 100 86 68 48 36 28 19 11 4
150 146 146 129 118 97 95 89 85 91 104 119 93 37 36 42 51 49 50 46 65 62 68 74 83 94 103 104 103 96 86 76 65 56 47 38 25 12
90 97 104 117 124 115 97 91 96 91 93 101 89 50 34 19 49 46 41 31 36 38 47 60 66 79 83 91 96 94 87 77 65 52 36 23 13 4
90 84 85 91 89 94 100 101 105 105 101 97 87 68 43 35 23 8 42 36 32 28 30 39 44 48 46 58 67 67 63 47 36 25 11 2 357 355
107 95 87 81 84 81 80 80 89 107 114 106 95 92 73 48 30 41 47 48 21 357 37 28 33 28 26 35 33 25 3 359 1 354 349 346 345 344
109 106 97 88 85 85 77 72 67 71 86 109 103 99 94 60 67 54 53 66 35 326 38 32 12 12 18 33 30 19 5 356 351 346 339 339 341 338
92 101 103 94 91 96 90 78 68 58 68 84 103 99 97 90 85 98 101 75 33 3 32 53 353 346 354 8 14 13 8 2 355 347 342 341 341 339
79 83 96 96 95 100 97 91 77 61 67 80 87 85 78 71 72 72 60 69 40 351 2 58 342 336 337 336 1 0 357 356 355 351 347 345 344 338
82 75 78 89 89 93 97 98 91 75 77 74 65 62 57 52 54 70 99 96 87 353 333 36 351 6 352 323 329 343 349 350 355 358 356 353 349 342
98 85 75 81 84 84 88 92 100 102 91 85 73 53 42 37 34 41 60 109 107 351 291 70 19 8 358 313 318 321 333 337 345 351 350 346 343 340
104 97 89 85 80 79 80 82 85 86 82 76 67 51 42 29 18 30 42 52 78 145 345 93 119 227 329 323 309 316 325 334 339 330 331 335 334 332
103 105 96 86 76 70 72 75 76 79 81 78 70 46 14 11 27 28 29 38 37 30 23 33 90 204 157 236 285 300 313 317 326 323 318 315 308 315
92 86 80 74 70 66 63 58 58 72 86 84 70 36 26 33 33 31 35 28 32 1 4 13 16 55 348 282 262 291 292 294 306 313 309 304 307 309
100 81 71 70 67 64 60 57 54 55 60 57 61 53 40 35 24 22 42 47 43 359 339 338 348 346 291 244 295 299 301 300 293 303 316 312 297 301
93 89 86 85 87 87 83 68 57 56 57 65 61 56 48 41 27 20 34 41 22 347 331 323 343 357 355 325 254 266 295 288 297 306 306 304 298 301
90 93 97 101 101 98 95 90 72 57 67 68 61 47 42 39 37 24 18 18 3 342 325 326 352 22 1 330 306 295 269 292 307 310 303 287 282 291
94 107 111 110 106 102 102 101 87 67 61 58 50 39 36 38 30 13 7 5 346 336 334 330 325 311 259 265 278 296 313 293 295 299 296 296 288 296
102 110 115 115 111 108 107 103 96 88 74 62 45 33 27 35 22 1 354 356 -0 342 330 310 292 306 282 322 320 309 302 316 310 282 281 298 308 312
124 125 123 121 120 116 112 108 96 86 72 60 37 18 12 26 14 353 349 344 328 313 301 297 312 333 356 335 309 299 299 309 323 326 314 290 261 279
142 134 129 129 127 123 121 121 116 106 92 71 36 8 5 1 344 337 331 329 324 321 321 319 326 333 319 302 299 297 302 305 308 318 312 316 315 306
Height
1562 1564 1565 1566 1566 1567 1568 1568 1569 1569 1569 1569 1569 1569 1569 1569 1569 1570 1570 1570 1570 1569 1569 1569 1569 1569 1569 1569 1568 1568 1567 1567 1566 1566 1566 1565 1565 1564
1559 1560 1561 1563 1563 1564 1565 1565 1566 1567 1567 1567 1567 1567 1567 1567 1567 1567 1567 1567 1567 1567 1567 1567 1566 1566 1566 1565 1565 1564 1564 1563 1562 1562 1561 1561 1560 1559
1556 1557 1558 1559 1560 1561 1562 1562 1563 1564 1564 1564 1564 1564 1564 1564 1564 1564 1564 1564 1564 1564 1564 1563 1563 1563 1562 1562 1561 1560 1560 1559 1559 1558 1557 1556 1555 1554
1553 1554 1555 1556 1557 1558 1558 1559 1560 1560 1561 1561 1561 1562 1562 1562 1562 1562 1561 1561 1561 1561 1560 1560 1560 1559 1559 1558 1557 1557 1556 1555 1555 1554 1552 1551 1550 1549
1550 1551 1552 1552 1553 1554 1555 1556 1557 1557 1558 1558 1558 1559 1559 1559 1559 1559 1559 1559 1558 1558 1557 1557 1557 1556 1555 1555 1554 1553 1552 1551 1550 1549 1548 1547 1545 1544
1546 1548 1549 1549 1550 1551 1552 1553 1554 1555 1555 1556 1556 1556 1556 1556 1557 1556 1556 1556 1556 1555 1555 1554 1554 1553 1552 1552 1551 1550 1549 1548 1546 1545 1544 1542 1541 1539
1544 1545 1546 1547 1547 1548 1549 1550 1551 1552 1553 1553 1553 1554 1554 1554 1554 1554 1554 1554 1553 1553 1553 1552 1552 1551 1550 1549 1548 1547 1546 1545 1543 1542 1541 1539 1538 1536
1541 1542 1543 1544 1545 1546 1547 1548 1549 1550 1550 1551 1551 1551 1551 1552 1552 1552 1552 1552 1552 1552 1551 1550 1550 1549 1548 1547 1546 1545 1543 1542 1541 1539 1538 1536 1535 1533
1540 1541 1541 1542 1544 1544 1545 1546 1547 1548 1549 1549 1549 1549 1550 1550 1551 1550 1550 1550 1550 1550 1550 1548 1548 1547 1546 1545 1544 1542 1541 1539 1538 1536 1535 1534 1532 1530
1539 1540 1541 1542 1543 1544 1545 1545 1546 1546 1547 1547 1548 1548 1549 1549 1549 1549 1549 1549 1548 1548 1547 1547 1546 1545 1544 1543 1542 1540 1538 1537 1535 1534 1532 1531 1529 1526
1538 1539 1540 1541 1543 1544 1544 1544 1545 1545 1546 1547 1547 1548 1548 1548 1548 1548 1547 1547 1546 1546 1546 1545 1544 1543 1543 1541 1540 1538 1536 1534 1533 1531 1529 1527 1525 1523
1538 1539 1540 1541 1543 1544 1544 1545 1545 1546 1547 1547 1547 1547 1548 1548 1547 1547 1546 1546 1545 1545 1545 1545 1543 1542 1541 1540 1539 1537 1535 1533 1531 1529 1527 1525 1522 1520
1538 1540 1541 1542 1543 1544 1545 1546 1546 1547 1547 1548 1548 1548 1548 1548 1547 1547 1547 1546 1545 1545 1545 1544 1543 1541 1540 1539 1537 1535 1533 1531 1529 1527 1525 1522 1519 1516
1539 1540 1542 1543 1544 1545 1546 1547 1547 1548 1548 1549 1549 1549 1549 1549 1548 1548 1547 1547 1546 1545 1545 1543 1542 1541 1539 1537 1535 1533 1531 1529 1527 1524 1522 1519 1516 1513
1540 1542 1543 1545 1546 1547 1548 1548 1549 1549 1550 1550 1550 1550 1550 1550 1549 1549 1548 1547 1546 1545 1544 1543 1541 1540 1538 1536 1534 1532 1529 1527 1525 1522 1519 1516 1513 1510
1542 1544 1545 1547 1548 1548 1549 1550 1550 1551 1551 1551 1551 1551 1551 1551 1550 1549 1548 1547 1546 1545 1544 1542 1541 1539 1537 1535 1533 1530 1528 1525 1523 1520 1516 1513 1510 1507
1545 1546 1547 1549 1549 1550 1551 1551 1552 1552 1552 1552 1552 1552 1552 1551 1550 1550 1548 1547 1546 1544 1543 1541 1540 1538 1536 1533 1531 1529 1526 1523 1521 1517 1514 1510 1508 1504
1547 1548 1549 1550 1551 1552 1552 1553 1553 1553 1553 1553 1552 1552 1552 1551 1551 1550 1548 1547 1546 1544 1542 1540 1538 1536 1534 1532 1530 1527 1524 1521 1518 1515 1512 1508 1504 1501
1548 1550 1551 1552 1553 1553 1553 1554 1554 1554 1554 1554 1553 1553 1552 1551 1550 1549 1548 1547 1545 1544 1542 1540 1537 1535 1532 1529 1528 1526 1522 1519 1516 1513 1510 1506 1502 1499
1550 1551 1553 1553 1554 1554 1554 1554 1555 1555 1554 1554 1553 1553 1552 1551 1550 1549 1547 1546 1545 1543 1541 1539 1537 1534 1532 1529 1526 1524 1521 1517 1514 1510 1507 1503 1500 1497
1552 1553 1554 1555 1555 1555 1555 1555 1555 1555 1554 1554 1553 1552 1551 1550 1549 1548 1547 1546 1544 1542 1540 1538 1536 1534 1531 1528 1525 1521 1519 1516 1512 1509 1504 1501 1496 1492
1554 1554 1555 1555 1556 1556 1555 1555 1555 1554 1554 1553 1552 1551 1551 1550 1549 1547 1546 1545 1543 1541 1539 1537 1534 1532 1529 1526 1522 1519 1516 1513 1510 1507 1503 1500 1495 1490
1555 1555 1556 1556 1556 1555 1555 1555 1554 1554 1553 1552 1551 1550 1550 1549 1548 1546 1545 1543 1542 1539 1537 1535 1532 1529 1527 1524 1521 1517 1514 1510 1507 1503 1500 1497 1494 1490